sat.trackr.live / text

‹ back to catalog

STARLINK-34438

NORAD 65876 · 2025-223Y

PAYLOAD ACTIVE UNKNOWN

§ Identity

Operator
Country
US
Launch date
2025-10-03
Launch site
AFWTR
Launch vehicle
Mass (kg)
RCS (m²)

Purposes: comms

External: N2YO · Heavens-Above · Gunter

§ Orbital elements

Epoch: 2026-09-20T06:39:26.608320Z

Period
93.85 min
Inclination
53.1566°
Eccentricity
0.0001332
Mean motion
15.34436252 rev/d
Perigee alt
461.7 km
Apogee alt
463.5 km
Semi-major
6,840.7 km
B*
9.2426e-4
RAAN
107.0890°
Arg perigee
68.3802°
Mean anomaly
291.7342°
Rev number
5,404

§ Raw data

STARLINK-344381 65876U 25223Y   26263.27739130  .00031017  00000+0  92426-3 0  99942 65876  53.1566 107.0890 0001332  68.3802 291.7342 15.34436252 54047

JSON: /api/v1/satellites/65876 · /tle

For live sub-satellite position, see the globe view (requires WebGL).

§ Visibility from observer

Set your observer location to see the next 7 days of passes ≥ 10°. The values pass through the URL so the page stays shareable.

No JS? Fill the form by hand. The geolocation button needs JavaScript.